TimeCDT,TemperatureF,Dew PointF,Humidity,Sea Level PressureIn,VisibilityMPH,Wind Direction,Wind SpeedMPH,Gust SpeedMPH,PrecipitationIn,Events,Conditions,WindDirDegrees,DateUTC
12:53 AM,48.9,45.0,86,30.06,10.0,East,3.5,-,N/A,,Clear,80,2013-06-07 05:53:00
1:53 AM,50.0,45.0,83,30.05,10.0,ENE,4.6,-,N/A,,Clear,60,2013-06-07 06:53:00
2:53 AM,46.9,44.1,90,30.06,10.0,Calm,Calm,-,N/A,,Clear,0,2013-06-07 07:53:00
3:53 AM,46.0,43.0,89,30.05,10.0,Calm,Calm,-,N/A,,Clear,0,2013-06-07 08:53:00
4:53 AM,44.1,42.1,93,30.04,10.0,Calm,Calm,-,N/A,,Clear,0,2013-06-07 09:53:00
5:53 AM,43.0,39.9,89,30.04,10.0,ENE,4.6,-,N/A,,Clear,70,2013-06-07 10:53:00
6:53 AM,44.1,42.1,93,30.04,10.0,Calm,Calm,-,N/A,,Clear,0,2013-06-07 11:53:00
7:53 AM,52.0,46.9,83,30.02,10.0,Calm,Calm,-,N/A,,Clear,0,2013-06-07 12:53:00
8:53 AM,59.0,48.9,69,30.02,10.0,ESE,4.6,-,N/A,,Clear,110,2013-06-07 13:53:00
9:53 AM,64.9,50.0,58,30.02,10.0,ESE,4.6,-,N/A,,Clear,120,2013-06-07 14:53:00
10:53 AM,68.0,50.0,52,29.99,10.0,Calm,Calm,-,N/A,,Clear,0,2013-06-07 15:53:00
11:53 AM,72.0,51.1,48,29.98,10.0,Variable,3.5,-,N/A,,Clear,0,2013-06-07 16:53:00
12:53 PM,75.0,50.0,41,29.95,10.0,Calm,Calm,-,N/A,,Clear,0,2013-06-07 17:53:00
1:53 PM,78.1,48.9,36,29.91,10.0,Variable,3.5,-,N/A,,Clear,0,2013-06-07 18:53:00
2:53 PM,78.1,48.9,36,29.90,10.0,Calm,Calm,-,N/A,,Clear,0,2013-06-07 19:53:00
3:53 PM,79.0,48.0,34,29.87,10.0,Variable,4.6,-,N/A,,Clear,0,2013-06-07 20:53:00
4:53 PM,80.1,50.0,35,29.85,10.0,South,6.9,-,N/A,,Clear,170,2013-06-07 21:53:00
5:53 PM,80.1,48.9,34,29.83,10.0,South,9.2,-,N/A,,Clear,180,2013-06-07 22:53:00
6:53 PM,80.1,48.0,32,29.81,10.0,SE,6.9,-,N/A,,Clear,140,2013-06-07 23:53:00
7:53 PM,77.0,46.9,34,29.80,10.0,SE,9.2,-,N/A,,Clear,140,2013-06-08 00:53:00
8:53 PM,68.0,54.0,61,29.79,10.0,East,8.1,-,N/A,,Clear,100,2013-06-08 01:53:00
9:53 PM,69.1,51.1,53,29.78,10.0,SE,10.4,-,N/A,,Clear,130,2013-06-08 02:53:00
10:53 PM,68.0,52.0,56,29.77,10.0,SSE,11.5,-,N/A,,Clear,150,2013-06-08 03:53:00
11:53 PM,66.9,53.1,61,29.75,10.0,SSE,13.8,20.7,N/A,,Partly Cloudy,150,2013-06-08 04:53:00